Погода Усановы

Погода Усановы : погода сейчас, прогноз погоды и архив. Всё, что Вы хотите узнать о погоде Усановы!

Поиск расширенной информации на нашем сайте:

Другие новости

Новости СМИ2

Главная страница сайта

Новости сайта

03.07.2017

Напоминаем, что на нашем специализированном сайте Метеоцентр.Азия вы можете получить высокодетализированные автоматические прогнозы погоды по пунктам России, СНГ и мира в авиационном формате (включающие направление и скорость ветра, видимость, явления погоды, количество и форму облачности, нижнюю и верхнюю границу облачности).

Рекомендуем: Генераторы бензиновые купить генераторы.

Погода Усановы - сегодня

Время (UTC), дата Ветер
(°,м/с) 
Видим.   Явления Облачность Т
(°С)
Тd
(°С)
f(%) Тe
(°С)
Pmin
(гПа)
dP
(гПа)
Po
(мм)
O2
(г/м3)
Тmin Tmax R s Состояние
почвы
18 19.11.17 150 (ЮВ) 10 км  {снег}  10/8 600 м средняя 
[Sc|Ac As]
-5.8 -6.3 96 -5  1022.6  0.5  761  314           
21 19.11.17 230 (ЮЗ) 10 км  слаб. снег  10/8 600 м средняя 
[Sc|Ac As]
-3.4 -3.7 98 -3  1023.2  0.6  761  311           
00 20.11.17 240 (ЮЗ) 10 км  слаб. снег  10/6 600 м средняя 
[Sc|Ac As]
-1.6 -2 97 -1  1023.7  0.6  762  309           
03 20.11.17 250 (З) 10 км  {снег}  10/10 600 м 
[Sc]
-1.1 -1.7 96 -2  1023.8  0.1  762  308  -7.3    0.5  33  равномерный
сухой снег
100% 
06 20.11.17 230 (ЮЗ) 10 км  слаб. снег  10/6 600 м средняя 
[Sc|Ac As]
-0.8 -1.7 94 -2  1024.2  0.4  762  308           
09 20.11.17 210 (ЮЗ) 4000 м  слаб. ливневой снег  10/10 300 м кучево-дожд. 
[Cb cap]
-0.5 -1.2 95 1024.4  0.2  762  308           
12 20.11.17 210 (ЮЗ) 10 км  слаб. ливневой снег  10/10 300 м кучево-дожд. 
[Cb cap]
-1.2 -1.6 97 -1  1024.4  762  309           
15 20.11.17 250 (З) 10 км  слаб. ливневой снег  10/10 300 м кучево-дожд. 
[Cb cap]
-0.7 -1.2 96 1024.8  0.4  763  308    -0.5  0.7     
18 20.11.17 230 (ЮЗ) 10 км  слаб. ливневой снег  8/8 300 м кучево-дожд. 
[Cb cap]
-0.9 -1.3 97 1024.6  -0.2  763  308           
21 20.11.17 250 (З) 10 км  слаб. ливневой снег  9/9 300 м кучево-дожд. 
[Cb cap]
-0.7 -1.3 96 1025.5  0.9  763  309           
00 21.11.17 190 (Ю) 10 км  {ливн. осадки}  8/8 300 м кучево-дожд. 
[Cb cap]
-1.4 -2.1 95 -1  1025.6  0.1  763  309           
03 21.11.17 180 (Ю) 10 км    10/10 600 м 
[Sc]
-1.6 -2.3 95 -1  1024.4  -1.2  762  309  -1.6    0.3  34  равномерный
сухой снег
100% 
06 21.11.17 190 (Ю) 10 км  слаб. снег  10/6 600 м средняя 
[Sc|Ac As]
-1.1 -1.9 94 -2  1023  -1.3  761  308  -1.7         
09 21.11.17 220 (ЮЗ) 10 км  слаб. снег  10/4 600 м средняя 
[Sc|Ac As]
-1.2 -1.7 96 -2  1022  -1.3  761  308           
12 21.11.17 260 (З) 10 км  {снег}  10/8 600 м средняя 
[Sc|Ac As]
-1 -1.4 97 -2  1023.1  761  308           
15 21.11.17 280 (З) 10 км    10/10 600 м 
[Sc]
-0.8 -1.1 98 -2  1024.4  1.4  762  308    -0.8     
18 21.11.17 230 (ЮЗ) 10 км  слаб. снег  10/8 600 м средняя 
[Sc|Ac As]
-0.7 -1 98 1025.2  0.8  763  308           
21 21.11.17 тихо ()   4000 м  дымка{снег}  10/10 600 м 
[Sc]
-0.7 -0.7 100 -1  1025.8  0.7  764  309           
00 22.11.17 160 (Ю) 10 км  слаб. снег  10/6 600 м средняя 
[Sc|Ac As]
-0.3 -0.3 100 1025.6  -0.2  763  308           
03 22.11.17 170 (Ю) 10 км  {снег}  10/10 300 м кучево-дожд. 
[Cb cap]
+0 -0.2 99 +1  1025.5  0.1  763  308  -0.8    0.7  34  равномерный
сухой снег
100% 
06 22.11.17 160 (Ю) 10 км  {снег}  6/0 средняя, верхняя 
[Ac trans|Ci fib]
-1.3 -2 95 -1  1025.6  0.1  763  309  -2.1         
09 22.11.17 160 (Ю) 10 км    10/4 600 м средняя, верхняя 
[Sc|Ac trans|Ci fib]
-1.7 -3.1 90 -1  1025  -0.7  763  310           
12 22.11.17 160 (Ю) 10 км    4/0 средняя 
[Ac trans]
-4.2 -5 94 -4  1024.8  -0.3  763  313           
15 22.11.17 150 (ЮВ) 10 км    ясно 
-9.8 -10.6 94 -10  1024.7  -0.3  762  320    +0       
18 22.11.17 170 (Ю) 10 км    ясно 
-12.7 -13.7 92 -13  1024.9  0.1  763  324           
Время (UTC), дата Ветер
(°,м/с) 
Видим.   Явления Облачность Т
(°С)
Тd
(°С)
f(%) Тe
(°С)
Pmin
(гПа)
dP
(гПа)
Po
(мм)
O2
(г/м3)
Тmin Tmax R s Состояние
почвы

Для получения пояснительной информации подведите курсор к названию столбца.

ПОГОДА Усановы - архив

Всё, что Вы хотите узнать о погоде Усановы - удобно и подробно!

Выберите нужную дату (начиная с 1 января 2015* года) и нажмите кнопку "Найти".
Будут отображены архивные сводки погоды по пункту Усановы, начиная с указанной даты.


Отображать данные в формате CSV (для использования в таблицах Excel)


Внимание! Наш архив погоды предназначен исключительно для личного некоммерческого использования в познавательных целях. Если Вам необходимы официальные справки о состоянии погоды (для производственных, юридических, коммерческих и т.п. целей), обращайтесь в органы Росгидромета.

*Примечание: данная дата относится к архиву по метеостанциям СССР (Россия, СНГ, Балтия).
Архив по метеостанциям Зарубежной Европы и Азии (кроме Китая) хранится 10 дней, по другим регионам земного шара (Китай, Африка, Америка, Австралия, Океания) - 1 день.

Усановы - район местоположения метеостанции


Название, широта, долгота, высота метеостанции:
Усановы 59.5°ш. 73.4°д. 82 м над ур. моря [Российская Федерация]

Дополнительная информация

В oтличие oт бoльшинства пoгoдных сайтoв мы публикуем пoдрoбную метеoинфoрмацию в детальнoм прoфессиoнальнoм фoрмате.

Характеристики температуры и влажнoсти вoздуха измеряются на высoте 2 м в тени вдали oт зданий и деревьев.
Скoрoсть ветра измеряется на высoте 10 м (на урoвне рoста челoвека скoрoсть ветра ниже в 1.5-2 раза). Если метеoстанция нахoдится в гoрoде или в лесу, тo скoрoсть ветра занижена на 2-4 м/с пo сравнению с oткрытым местoм. Скoрoсть ветра над акватoриями крупных рек и oзёр, а также на вершинах хoлмoв на 2-5 м/с выше, чем в oбычных услoвиях.
Атмoсфернoе давление в разных тoчках местнoсти мoжет значительнo oтличаться oт давления на метеoстанции, в зависимoсти oт услoвий рельефа (при пoдъёме на 10 м давление пoнижается примернo на 1 мм рт.ст.).